Theta_e
291 292 292 292 292 292 292 292 293 293 293 293 294 295 295 296 296 297 297 298 298 299 299 299 299 299 299 298 298 297 297 297 296 296 296 297 297 298 298 298 298 299 298 297 296 296 295 295 295 294 294 294 294 294 294 295 296 296 296 296 296 296 296 296 296 296 296 296 296 296 296 295 294 293 292 292 292 291 291 291 292 292 292 292 293
291 291 291 291 291 291 291 291 291 291 292 292 292 292 293 293 294 295 296 296 297 297 298 298 298 298 298 298 298 297 297 296 296 296 296 296 296 296 297 297 298 299 299 299 298 297 296 295 295 295 295 293 293 293 294 294 295 296 296 296 296 296 296 296 295 295 295 296 296 296 296 295 294 293 292 292 291 291 291 291 291 292 292 292 292
290 291 291 290 290 290 290 290 290 290 291 291 291 291 291 291 292 292 293 294 295 295 296 297 298 298 298 297 297 297 296 296 296 295 295 295 295 295 295 295 296 297 298 299 299 298 297 297 297 296 295 294 293 293 293 293 294 295 296 296 296 296 296 296 295 295 295 295 295 296 296 296 295 293 292 291 291 291 291 291 291 291 291 292 292
289 289 289 289 290 290 290 290 289 289 289 290 290 290 290 290 290 291 291 292 292 293 294 295 296 297 297 298 297 297 296 296 295 294 294 294 295 295 295 295 295 295 296 297 297 298 297 298 298 297 296 295 294 293 293 293 293 294 295 295 295 295 295 296 295 295 294 295 295 295 295 295 295 294 292 291 291 291 291 290 290 291 291 291 291
288 288 288 288 288 288 289 289 289 288 288 288 288 289 289 289 289 289 289 290 290 291 291 292 293 294 295 297 297 297 297 296 295 294 294 293 293 294 294 294 294 294 295 295 296 296 296 297 297 297 296 296 296 295 293 293 293 293 294 295 295 295 295 295 295 295 294 294 295 295 295 295 294 293 292 291 291 291 290 290 290 290 291 290 290
287 287 287 287 287 287 287 288 288 288 288 287 287 287 287 288 288 288 288 288 288 289 289 289 290 291 292 293 295 296 297 297 296 295 294 294 293 293 293 293 294 294 295 295 295 295 295 296 296 296 296 297 297 296 294 293 293 293 293 294 294 295 295 295 295 295 294 294 294 294 294 294 294 293 293 292 291 290 290 290 290 290 290 290 290
287 287 287 287 287 287 287 287 287 287 287 287 287 287 287 286 287 287 287 287 287 287 287 287 288 288 289 290 291 293 294 295 296 296 295 295 294 293 293 293 293 294 294 295 295 295 295 295 295 295 295 296 297 297 296 294 292 292 293 293 293 294 294 294 295 295 294 293 294 294 293 293 293 293 292 292 291 290 290 289 290 290 290 289 289
287 287 287 287 287 287 287 287 287 287 287 287 287 287 287 286 286 286 286 287 287 287 286 286 287 287 287 287 288 289 290 291 293 294 295 295 295 294 294 293 293 293 294 294 294 294 295 295 295 295 295 296 296 296 296 295 293 292 292 292 293 293 294 294 294 295 294 293 293 293 293 293 293 292 292 291 291 290 290 289 289 289 289 289 289
287 287 287 287 287 287 287 286 287 286 287 286 286 286 286 286 286 286 286 286 286 286 286 286 286 286 286 286 286 286 287 288 289 290 292 293 294 294 294 294 294 294 294 294 294 294 294 294 294 294 295 295 295 295 295 295 294 292 292 292 292 292 293 293 294 294 294 293 293 292 292 292 292 292 292 292 291 291 290 289 289 289 289 289 289
287 287 287 287 287 287 286 286 286 286 286 286 286 286 286 286 286 286 286 286 286 286 286 286 286 286 286 286 286 286 286 286 286 287 288 290 291 293 294 294 294 294 294 294 295 295 295 294 294 294 294 295 295 295 295 295 294 293 292 291 291 292 292 293 293 294 294 293 293 293 292 292 293 293 293 293 292 291 290 289 289 288 288 288 288
287 287 287 287 286 286 286 286 286 286 286 286 286 286 286 286 286 286 286 286 286 286 286 286 286 286 286 286 286 286 286 286 286 286 286 286 287 289 292 293 293 293 293 293 294 294 295 294 294 294 294 294 294 295 295 295 294 294 292 290 290 291 291 292 292 293 293 294 293 293 293 293 293 294 294 293 292 291 290 290 289 288 288 288 288
286 286 286 286 286 286 286 286 286 286 286 286 286 286 286 286 286 286 286 286 286 286 286 286 286 286 286 286 286 286 286 286 286 286 286 285 285 286 288 290 292 293 293 293 293 293 293 293 294 294 294 294 294 294 295 295 295 295 293 290 289 289 290 291 291 292 293 293 293 293 294 294 294 294 294 293 293 292 291 290 289 288 288 288 288
286 286 286 285 285 285 286 286 286 286 286 286 286 286 286 286 286 286 286 286 286 286 286 286 286 286 285 285 285 286 286 286 286 286 286 286 285 285 285 287 290 292 293 293 292 293 293 293 293 293 294 294 294 294 294 295 295 294 293 291 290 289 289 289 290 291 292 292 293 294 294 294 294 294 294 294 294 293 292 290 290 289 288 288 288
285 285 285 285 285 285 285 285 285 285 285 285 285 285 285 285 286 286 286 286 286 286 286 285 285 285 285 285 285 285 285 285 285 286 286 286 285 285 285 285 286 289 291 292 292 292 293 292 292 293 293 293 293 294 294 293 293 293 292 291 291 290 288 288 288 289 290 291 292 293 293 293 294 294 294 294 294 293 293 292 291 290 289 288 287
285 285 284 284 284 284 284 284 284 285 285 285 285 285 285 285 285 285 285 285 285 285 285 285 285 285 285 285 285 285 285 285 285 285 285 285 285 285 285 285 285 286 288 290 292 292 292 292 292 292 293 292 292 293 293 293 292 291 291 291 291 291 289 288 288 288 289 290 290 291 292 292 293 293 293 293 293 293 293 292 291 289 288 287 286
284 284 284 284 284 284 284 284 284 284 284 284 284 284 284 284 284 284 284 285 285 285 285 285 285 285 285 285 285 285 285 285 285 285 285 285 285 285 285 285 284 284 285 287 290 291 292 291 291 292 292 292 292 292 292 292 291 290 290 290 290 290 290 289 289 288 288 288 289 290 291 291 291 292 292 292 292 292 292 290 288 287 287 286 286
283 283 283 283 283 282 282 282 282 282 282 282 283 283 284 284 284 284 284 284 284 284 284 284 285 285 285 285 285 285 285 285 285 285 285 285 285 285 285 284 284 284 284 285 287 289 291 291 291 291 291 292 291 291 291 291 290 290 290 290 289 289 290 290 289 288 287 288 288 289 289 290 290 290 290 290 290 290 290 289 287 286 286 286 287
282 282 282 282 281 281 281 280 280 280 280 280 280 281 281 282 282 283 283 283 284 283 283 283 284 284 284 284 284 284 284 285 285 284 284 285 284 284 284 284 284 284 284 284 285 287 289 291 291 290 291 291 290 290 290 290 289 289 289 289 288 288 289 289 288 287 287 287 287 287 288 288 289 289 289 289 288 288 289 288 288 287 286 286 287
282 282 281 281 280 280 280 279 279 278 278 278 278 278 278 278 278 279 279 280 282 283 282 282 283 283 283 284 284 284 284 284 284 284 284 284 284 284 284 284 284 284 284 284 284 285 287 290 290 290 290 290 289 288 289 289 289 289 289 288 288 288 289 289 287 286 286 286 286 286 286 287 287 288 288 288 287 287 288 288 287 286 286 286 288
282 281 281 280 280 279 279 278 278 277 277 277 277 276 276 276 276 277 276 276 278 279 280 280 281 282 283 283 284 284 284 284 284 284 284 284 284 284 284 284 284 284 284 284 284 285 286 288 290 290 290 289 288 288 288 288 288 288 288 287 288 288 288 288 287 287 286 286 286 286 286 286 286 286 287 287 287 287 287 286 285 285 285 286 287
281 280 280 280 280 280 279 278 277 277 276 276 276 276 276 275 275 275 275 274 275 275 276 277 277 279 281 282 283 283 283 283 284 284 284 284 284 283 283 283 284 284 284 284 284 285 285 287 289 290 290 289 289 288 288 288 288 288 288 288 288 288 288 287 287 287 286 285 286 286 286 286 286 286 286 286 286 287 286 285 285 284 284 285 287
281 280 280 280 280 280 279 278 277 277 277 276 275 275 276 275 273 273 272 272 273 273 273 274 274 275 278 280 282 282 283 283 283 283 284 284 283 283 283 283 283 284 284 284 284 284 285 285 287 289 290 289 289 288 288 288 288 288 288 288 288 288 287 287 287 286 285 285 285 284 284 285 285 285 285 285 285 286 286 285 284 284 284 285 287
280 280 280 279 279 278 278 278 277 277 277 276 274 274 274 273 272 271 270 270 270 270 270 271 271 271 273 276 278 281 282 282 282 283 283 283 283 282 282 283 283 283 283 284 284 284 284 285 286 288 289 289 288 288 287 288 288 287 288 288 287 287 286 286 286 285 285 284 284 283 283 284 284 284 284 284 284 284 285 285 285 284 285 286 287
279 279 278 278 277 277 277 277 277 277 276 274 273 273 272 271 269 269 268 267 267 268 268 269 269 270 270 271 273 276 278 279 280 281 282 282 282 281 282 282 283 283 283 283 284 284 284 284 285 287 289 289 288 288 287 287 287 287 287 287 286 286 286 285 285 284 284 284 284 283 283 283 283 283 283 283 284 284 284 285 284 285 285 286 287
278 277 277 277 277 277 276 276 276 275 273 271 270 270 269 267 266 266 266 266 266 267 267 268 268 269 270 270 271 272 274 276 277 279 280 281 281 281 282 283 282 283 283 283 284 284 284 284 284 287 288 288 287 287 287 287 287 287 287 286 286 286 285 284 284 284 283 283 283 283 283 282 282 282 283 283 283 283 284 284 284 285 285 285 286
277 277 276 276 276 275 275 274 273 272 270 269 268 267 266 265 264 264 264 265 265 266 267 267 268 268 269 269 270 271 272 273 275 277 278 280 280 281 282 283 282 282 282 283 283 284 284 284 285 287 288 288 287 287 287 287 287 287 286 286 286 285 285 284 284 283 283 283 283 282 282 282 281 282 282 282 282 283 283 284 284 285 285 286 286
276 276 275 275 274 274 273 272 270 269 268 267 266 265 264 264 264 264 264 264 265 265 266 266 267 268 268 268 269 270 271 273 274 276 278 279 280 281 282 282 282 281 282 282 283 284 283 283 285 287 288 287 287 287 287 287 287 286 286 286 286 285 285 284 284 283 283 283 282 282 282 282 281 281 281 281 282 282 283 284 285 285 285 286 286
274 274 274 273 273 272 270 268 267 267 266 265 264 264 263 263 263 264 264 264 264 264 265 265 265 266 266 267 268 269 270 271 273 274 276 278 280 281 281 282 281 281 281 282 282 283 283 284 285 286 287 286 286 287 287 287 286 286 285 285 286 285 284 284 284 283 283 283 282 282 281 281 281 281 281 281 281 282 283 284 284 284 285 285 285
273 273 272 271 270 268 267 266 266 265 264 263 263 263 263 263 263 263 264 264 264 264 265 265 265 266 266 266 267 268 269 270 271 272 274 276 278 280 281 281 281 281 281 282 282 282 282 284 285 286 286 286 286 286 286 286 286 285 285 285 285 285 284 283 283 283 283 282 281 281 281 280 280 280 280 280 281 282 282 283 283 283 283 284 284
272 271 270 269 268 267 267 266 265 263 263 263 263 263 263 263 263 264 264 264 265 265 266 266 266 267 267 267 268 268 269 269 270 271 273 274 276 277 279 281 282 282 282 282 282 282 283 284 285 285 285 285 286 286 286 286 285 285 285 284 285 285 284 283 283 283 282 281 281 281 280 280 280 280 280 280 280 281 281 281 282 282 282 283 282
270 270 269 269 268 266 265 263 263 262 262 263 262 262 263 263 263 264 264 264 265 265 266 266 267 267 268 268 268 269 269 270 271 272 273 274 275 276 277 279 280 282 282 282 282 282 283 284 284 285 285 285 285 286 286 286 285 285 284 284 284 284 284 282 282 282 282 281 280 280 280 279 280 280 280 280 281 281 281 280 281 281 281 281 280
270 270 269 268 266 264 262 262 262 262 262 262 262 262 263 263 263 263 263 264 264 265 265 266 266 267 267 268 268 269 269 270 271 272 273 274 275 276 277 278 279 280 281 282 283 283 283 284 284 284 284 285 285 285 285 285 285 284 284 284 284 284 283 282 282 282 281 281 280 279 279 279 280 281 281 281 282 281 281 280 280 280 280 279 278
270 269 267 265 263 262 262 262 262 262 262 262 262 262 262 262 263 263 263 263 264 264 265 265 266 266 267 267 268 268 269 269 270 271 272 273 274 276 277 278 279 280 281 282 283 283 283 283 284 284 284 285 285 285 285 285 285 284 284 283 283 283 282 281 281 281 281 280 280 279 279 280 280 281 281 281 281 281 280 280 279 279 278 278 277
268 267 266 264 262 262 262 262 262 262 262 262 262 262 262 262 263 263 263 263 263 264 264 264 265 265 266 266 267 267 268 269 270 271 272 273 274 275 276 278 279 280 281 282 283 283 283 283 284 284 284 284 284 284 284 284 284 284 283 283 283 283 282 281 281 281 281 280 280 279 279 279 280 280 281 281 280 280 280 280 279 278 278 277 277
267 266 266 265 263 262 262 262 262 262 262 262 262 262 262 262 263 263 263 263 263 264 264 264 265 265 266 266 267 267 268 269 270 271 272 273 274 275 276 277 278 280 282 282 283 283 283 283 283 284 284 284 284 283 283 283 283 283 283 283 283 282 281 281 281 281 281 280 280 280 280 279 280 281 281 281 280 279 279 279 279 278 278 277 277
267 266 266 265 264 263 262 262 262 262 262 262 262 262 262 263 263 263 263 264 264 264 264 265 265 265 266 266 267 268 269 270 271 271 272 273 274 276 276 276 277 280 282 283 283 283 283 283 284 283 283 283 283 283 283 283 283 283 283 283 282 282 281 280 280 281 281 281 280 280 279 279 279 280 280 280 279 279 279 279 278 277 277 277 277
267 266 266 265 264 263 262 262 262 262 262 262 263 263 263 263 263 263 264 264 264 264 265 265 265 265 266 267 267 268 269 271 272 273 274 275 276 277 277 277 278 280 282 283 283 283 283 283 283 284 283 283 283 283 282 282 282 282 282 282 282 282 281 281 281 281 281 281 280 279 279 278 278 279 279 279 279 278 278 277 277 276 276 276 276
268 267 267 265 264 263 262 262 262 262 263 263 263 263 263 263 264 264 264 264 265 265 265 265 266 266 267 268 269 269 270 272 273 274 276 277 278 278 278 278 279 280 282 283 283 283 282 283 283 284 283 283 283 282 282 282 282 282 282 282 282 282 281 281 280 280 280 280 280 279 278 278 278 279 279 279 278 277 276 276 276 275 275 275 275
269 268 267 266 265 264 263 263 263 263 263 264 264 264 264 264 264 264 264 265 265 265 265 266 266 267 268 269 270 270 271 271 273 274 275 277 278 279 279 280 280 281 282 283 283 283 282 282 283 283 283 283 282 282 282 282 282 282 282 281 281 281 280 279 279 279 280 280 279 278 278 278 278 278 277 277 277 276 276 275 275 276 275 275 275
269 268 267 266 266 265 264 264 264 264 264 264 264 264 264 265 265 265 265 265 266 266 266 266 267 268 269 270 271 271 271 272 273 274 275 277 278 278 279 280 281 282 283 283 283 283 282 282 283 283 283 283 282 282 282 282 282 281 281 281 281 280 279 279 279 279 280 280 279 279 279 278 278 277 276 275 276 276 275 275 275 275 275 275 275
270 268 267 267 266 266 265 265 265 265 264 265 265 265 265 265 266 266 266 266 267 267 267 268 268 269 270 271 272 272 272 273 274 275 276 277 277 278 279 280 281 283 283 283 283 283 282 283 283 283 283 282 282 281 281 281 281 281 281 280 280 280 279 278 278 279 280 280 279 279 279 278 277 276 275 275 275 275 275 275 275 275 275 274 274
270 268 267 267 267 266 266 266 266 265 265 265 265 265 265 266 266 266 267 267 268 268 268 269 269 270 271 272 272 273 273 274 275 276 276 277 277 278 278 279 281 283 283 283 283 283 282 282 283 282 282 282 281 281 281 281 282 281 281 280 280 279 278 278 278 278 279 279 279 279 278 277 276 275 275 275 274 274 274 274 274 274 274 274 274
270 269 268 267 267 267 267 266 266 265 265 265 265 266 266 266 266 267 267 268 268 269 269 269 270 271 271 272 272 273 273 274 275 275 276 276 278 278 279 279 281 282 283 283 283 282 282 282 282 282 282 282 282 281 281 282 282 281 281 280 279 278 278 278 277 277 278 278 278 278 277 276 275 275 275 275 274 274 274 274 274 274 274 273 273
270 269 268 268 268 268 268 267 266 266 265 266 266 266 266 266 267 267 267 267 268 268 269 269 270 270 271 272 272 273 274 274 275 275 276 277 278 278 279 279 280 281 282 282 282 282 282 282 282 282 282 281 281 281 281 281 282 282 281 280 279 278 278 278 278 277 278 278 278 278 276 276 275 275 275 274 274 274 274 274 274 273 273 273 273
270 269 269 268 269 268 268 268 267 267 266 266 267 267 267 267 267 268 268 268 268 268 269 270 270 271 271 272 273 273 274 274 275 275 276 277 278 278 279 279 280 281 281 282 282 282 281 281 281 281 281 280 280 280 280 280 281 281 280 280 279 279 278 278 278 278 278 279 279 277 276 275 275 275 275 274 274 274 274 274 273 273 273 273 273
270 269 269 269 269 269 268 268 268 268 267 267 267 268 268 268 268 268 268 269 269 269 269 270 270 271 272 272 273 273 274 274 274 275 276 277 277 278 278 279 279 280 280 281 281 281 281 280 280 280 280 280 279 279 279 280 280 279 279 278 278 278 278 278 278 278 278 278 278 277 276 275 275 275 275 274 274 274 273 273 273 273 273 273 273
270 270 269 269 269 269 269 269 269 269 269 269 268 268 269 269 269 269 269 269 270 270 270 270 270 271 271 272 272 273 273 274 274 275 275 276 277 277 278 278 279 279 280 280 280 280 280 280 279 279 279 279 279 278 278 279 279 278 277 277 277 277 277 277 277 278 277 277 277 277 276 275 275 275 274 274 273 273 273 273 273 272 272 272 272
270 270 270 269 269 269 270 270 270 270 270 270 270 269 269 269 270 270 270 270 270 270 271 271 270 270 271 272 272 272 273 273 273 274 274 275 276 276 277 277 278 278 279 279 279 279 279 279 278 278 278 278 278 278 278 278 278 277 277 276 276 276 276 276 276 276 276 276 276 276 275 275 275 274 274 273 273 273 273 273 272 272 272 271 271
270 270 270 270 270 270 270 270 270 270 270 270 270 270 270 270 270 270 270 270 270 270 271 271 271 271 271 271 272 272 273 273 273 273 274 274 275 275 276 276 277 277 278 278 278 278 278 277 277 277 277 277 277 277 277 277 277 277 276 276 275 275 275 275 275 275 275 274 275 275 274 274 274 274 273 273 273 272 272 272 272 271 271 271 271
270 270 270 270 270 270 270 270 270 270 270 271 271 271 271 271 271 271 271 271 271 271 271 271 271 271 271 271 272 272 272 273 273 273 273 274 274 274 275 275 275 276 276 276 276 276 276 275 275 275 275 276 276 276 276 276 276 275 275 275 274 274 274 274 274 274 274 274 274 274 274 273 273 273 273 272 272 272 272 271 271 271 270 270 270
270 270 270 270 270 270 270 270 270 270 270 271 271 271 271 271 271 271 271 271 271 271 271 271 271 271 271 271 271 272 272 272 272 273 273 273 273 273 274 274 274 275 275 275 275 275 275 275 275 275 275 275 275 275 274 274 274 274 273 273 273 273 273 273 274 274 274 274 274 273 273 273 273 273 272 272 272 271 271 271 270 270 270 270 269
Wind_Speed
23 22 22 22 22 22 23 23 24 24 24 23 23 23 22 23 23 23 23 23 23 24 25 25 24 23 23 24 24 23 24 25 26 26 27 28 28 28 28 29 33 37 42 47 50 52 54 55 57 57 56 57 58 58 57 54 52 50 48 47 46 43 41 38 34 32 31 30 31 31 31 33 34 34 36 37 36 35 33 30 29 27 25 23 20
23 23 22 22 22 22 22 23 23 24 24 24 24 24 23 23 23 23 23 23 23 23 23 23 24 24 23 24 25 25 24 24 25 27 29 30 30 30 30 31 33 34 36 40 46 50 53 55 56 56 55 56 58 58 58 56 54 53 51 50 49 47 44 41 37 35 34 33 33 32 31 32 34 34 35 37 37 37 35 33 31 29 27 24 22
23 24 24 25 25 24 23 23 23 23 24 24 25 25 25 25 25 25 25 24 24 23 23 22 22 22 23 23 24 25 27 26 26 26 28 30 31 31 31 32 34 35 36 37 39 44 49 53 56 55 54 56 57 58 58 57 56 55 54 52 51 49 48 45 41 38 37 36 35 33 32 32 33 34 35 36 38 38 37 35 33 31 29 26 23
23 23 24 25 26 26 25 25 24 24 24 25 25 25 25 26 26 27 27 26 26 25 25 24 22 22 22 22 22 23 24 27 28 28 28 29 30 31 31 32 34 35 37 38 38 39 43 49 52 53 53 55 57 58 58 58 58 57 56 55 54 52 50 48 45 42 40 39 38 36 34 32 33 35 36 37 39 39 38 36 35 32 30 27 25
25 25 26 26 26 27 27 28 27 27 26 26 26 26 26 26 26 27 27 27 28 28 27 26 25 24 23 23 23 22 22 23 26 28 29 30 30 30 31 32 34 35 36 38 38 39 41 45 48 50 52 54 56 58 58 59 59 59 59 58 56 54 52 51 48 46 44 42 40 38 36 34 34 36 37 38 39 39 38 37 35 33 31 28 26
25 26 27 28 28 28 28 29 29 30 29 29 28 28 28 27 27 27 27 27 27 28 28 28 27 26 24 23 23 24 23 22 22 25 28 30 32 32 31 32 34 35 36 38 38 39 41 44 46 48 50 53 56 57 57 58 59 60 61 60 59 56 55 54 51 49 47 45 43 41 39 36 36 37 38 39 40 39 38 37 36 34 32 30 28
23 24 26 27 28 29 29 29 30 30 30 31 31 31 31 31 30 28 28 27 27 27 28 29 29 28 27 26 24 24 25 25 24 23 24 26 29 32 32 33 34 35 37 38 38 38 40 42 45 47 49 52 54 55 56 57 58 60 62 62 61 59 58 57 54 51 50 48 46 44 42 39 38 38 38 38 39 40 38 38 38 37 34 32 28
22 23 25 26 27 29 30 31 31 31 31 31 32 32 33 33 33 32 31 29 29 29 29 29 30 30 29 28 28 26 26 26 26 26 25 25 25 28 30 32 33 35 36 38 38 39 40 41 43 45 48 49 51 53 54 55 57 60 62 62 63 62 61 60 57 55 53 51 49 47 45 42 40 40 39 39 41 42 41 40 39 37 34 32 30
23 24 25 26 27 28 29 31 32 32 33 33 33 33 33 33 34 35 35 34 33 32 31 31 31 31 31 31 31 30 29 28 27 26 27 27 27 26 27 29 31 33 35 37 38 39 41 42 43 45 46 48 49 49 51 54 56 59 61 62 63 64 64 63 61 59 57 54 51 49 47 45 44 44 43 42 42 42 41 40 38 36 35 33 31
25 26 27 27 28 29 29 30 31 33 34 35 35 35 36 36 36 36 37 37 37 36 35 34 33 33 33 33 33 33 33 31 30 28 28 28 29 29 29 29 30 32 34 36 38 40 41 42 44 45 45 46 47 47 48 51 54 57 60 61 63 65 65 65 65 63 61 58 56 53 51 50 49 48 45 42 40 40 40 40 38 37 36 35 34
28 29 30 31 32 32 32 33 33 34 35 36 36 37 37 38 38 39 40 40 40 40 40 39 38 37 36 36 36 36 36 35 34 32 31 29 29 30 31 31 30 32 34 36 38 40 42 42 43 44 44 45 46 46 47 48 51 55 58 60 61 63 65 67 67 66 63 61 59 58 56 55 53 50 47 43 41 41 40 39 38 38 38 37 36
33 33 33 34 34 35 35 36 36 36 36 37 38 38 39 39 39 40 41 42 43 44 44 45 44 43 41 40 39 38 39 38 37 36 34 33 32 31 32 32 33 33 35 37 39 40 42 44 44 44 45 45 45 45 46 47 48 51 56 59 61 61 63 66 67 66 65 64 62 61 60 58 55 52 49 46 42 41 41 40 39 39 39 37 36
37 38 37 37 37 37 37 37 38 38 38 38 39 40 40 41 41 41 42 43 44 46 47 48 49 49 48 47 45 44 42 40 39 39 38 36 35 34 34 34 34 35 35 37 39 40 41 44 46 46 46 45 44 44 45 46 47 48 52 56 60 62 63 64 65 65 65 65 65 64 63 60 57 54 51 47 43 42 43 43 41 40 39 37 36
41 41 41 40 40 39 40 40 40 40 40 40 41 41 42 42 43 43 43 44 45 46 48 49 51 52 52 52 52 51 49 46 43 41 40 39 38 36 36 37 36 36 36 37 39 41 42 43 45 48 48 47 45 44 44 45 46 47 50 54 59 62 64 64 64 64 64 65 65 64 63 60 58 55 52 49 46 45 44 43 42 41 40 38 38
44 43 43 43 42 42 43 43 44 44 44 43 43 44 45 45 46 46 46 47 47 48 49 50 52 54 55 55 56 55 55 53 50 46 43 41 40 39 39 39 39 39 39 38 39 41 43 43 45 47 48 49 48 46 44 45 45 45 48 52 56 60 63 65 66 66 66 66 65 63 61 59 57 56 54 51 48 45 44 43 42 41 41 40 40
46 45 45 45 46 46 47 47 48 48 49 50 50 49 49 50 50 51 51 52 51 51 51 51 52 53 55 57 58 59 58 57 56 53 49 45 43 42 41 41 41 42 42 41 41 41 42 44 46 47 48 49 50 50 46 44 44 44 46 50 54 57 61 63 65 67 67 67 66 64 61 59 57 55 54 53 50 47 45 44 42 42 43 42 41
46 47 47 48 48 49 49 49 49 49 51 53 55 56 57 57 57 57 57 58 57 57 57 56 55 55 56 57 59 61 62 60 58 57 55 51 48 46 45 44 43 44 44 43 43 42 43 44 45 47 49 49 50 52 49 45 44 44 46 48 51 55 58 60 62 65 67 67 66 64 63 61 58 56 54 53 51 48 47 46 45 45 44 43 42
48 48 49 49 49 50 49 48 49 50 51 53 55 58 60 60 61 63 63 64 64 63 62 62 61 59 59 59 59 61 64 63 62 61 59 56 53 50 49 47 45 45 45 45 44 44 44 45 44 46 49 49 50 51 49 46 45 46 47 48 50 54 57 58 60 62 64 65 65 63 62 61 60 58 55 53 50 48 47 47 46 46 46 45 43
49 50 51 51 52 53 52 51 52 52 53 54 55 56 58 60 61 62 63 64 68 69 68 68 68 67 65 64 63 63 64 65 65 65 63 61 58 54 51 48 47 46 46 45 45 45 45 45 44 45 47 48 49 51 49 46 45 46 46 48 51 55 56 56 58 59 60 62 63 62 61 59 59 58 56 53 50 49 48 47 45 45 46 45 42
51 53 54 55 56 58 57 56 55 54 54 55 56 57 59 60 60 60 59 61 65 69 69 68 69 71 71 70 68 67 67 68 68 68 68 66 63 58 52 49 48 48 47 45 44 45 46 45 44 45 45 45 46 50 51 48 45 45 45 48 53 55 54 53 55 57 58 59 61 62 61 60 59 58 57 54 52 52 51 48 45 44 44 43 41
54 55 58 59 61 62 61 59 58 57 57 57 58 60 60 58 58 59 60 60 61 63 64 64 65 70 74 75 73 72 71 70 70 71 71 70 68 63 56 52 51 51 49 47 45 45 46 46 45 44 44 44 43 45 49 50 47 45 46 49 51 50 49 50 52 54 56 57 57 59 60 61 61 60 59 57 57 56 54 50 46 44 42 41 41
57 59 61 62 63 64 63 61 60 60 60 59 59 60 61 60 58 58 58 59 59 60 62 63 64 68 73 77 77 75 73 72 72 72 72 72 70 66 61 56 54 52 50 49 48 47 46 46 45 44 43 43 42 41 43 46 47 46 46 47 47 46 46 48 50 52 54 55 56 56 57 59 60 60 60 59 59 58 56 52 49 46 43 41 41
60 61 62 62 62 62 61 61 60 60 60 60 58 60 62 60 58 56 56 57 58 59 61 61 60 62 67 72 75 75 73 71 70 70 71 71 69 67 64 60 57 53 51 51 50 49 48 46 45 44 42 42 43 40 39 41 44 46 46 45 45 46 46 47 50 52 53 54 55 55 56 57 59 60 60 60 60 59 57 53 49 46 44 43 42
59 60 60 60 60 59 59 60 59 59 60 59 58 61 61 57 55 55 52 50 50 52 53 51 48 49 53 59 67 70 67 64 62 63 65 66 65 64 63 62 59 54 52 52 51 50 48 46 45 45 43 43 43 40 37 38 41 43 44 43 44 46 46 49 52 53 53 54 55 56 57 58 58 59 60 61 61 59 55 51 47 45 44 44 42
57 57 57 57 58 58 58 58 58 58 57 56 56 58 56 52 50 49 43 40 41 42 43 42 41 41 42 45 52 56 55 53 52 53 55 57 57 54 51 53 56 54 51 52 52 50 48 46 45 44 43 42 41 38 36 37 39 41 42 41 42 45 47 50 53 53 54 56 57 56 56 56 56 59 60 60 58 56 52 49 47 46 45 43 40
54 55 55 55 56 56 56 57 57 56 54 52 52 52 51 48 45 41 36 35 37 38 39 39 38 39 39 40 42 44 44 44 44 45 45 46 48 47 42 42 48 50 48 49 50 49 47 44 42 42 42 41 40 37 36 37 38 39 39 39 41 45 47 50 53 55 56 56 55 54 54 54 55 58 58 56 54 53 52 50 49 48 46 43 40
53 54 54 54 54 54 55 55 55 54 52 50 50 49 46 43 40 36 34 34 35 36 37 37 37 37 38 39 40 40 39 37 36 36 37 36 38 39 38 37 39 41 43 45 47 48 47 43 41 40 40 40 41 39 36 36 37 38 39 39 43 47 48 49 53 55 55 54 53 52 53 53 54 56 56 54 54 53 52 51 49 49 47 43 39
50 52 52 53 53 53 53 52 52 52 51 48 46 45 42 38 36 36 35 35 36 37 38 38 38 38 38 40 40 39 38 37 34 32 32 31 30 31 32 33 34 35 37 41 43 44 43 40 38 38 38 39 40 39 38 37 38 40 40 41 44 48 48 48 50 52 53 53 52 52 52 53 54 56 56 55 54 54 52 50 49 47 44 41 39
49 50 51 52 52 52 52 51 50 50 49 45 44 43 41 38 38 39 39 37 37 39 41 41 41 40 41 42 41 40 41 39 34 31 31 31 31 31 31 32 32 31 33 36 36 36 35 34 35 37 38 38 39 40 40 39 39 40 40 41 44 48 48 48 50 51 52 51 51 51 52 52 53 55 55 54 53 53 51 50 48 45 41 39 39
48 49 50 51 52 52 53 52 49 46 45 45 45 45 43 39 36 38 40 39 38 39 42 44 44 44 46 47 45 45 47 45 41 38 38 37 36 35 34 33 31 29 29 29 28 29 30 32 36 38 39 39 41 43 43 42 40 39 40 41 44 48 49 49 50 50 50 50 51 52 52 52 53 54 54 53 52 51 49 48 46 43 41 40 38
47 49 50 52 52 51 50 47 44 42 43 44 44 45 45 42 37 35 36 38 38 39 40 43 43 43 46 48 48 47 48 47 45 44 43 42 40 40 40 38 35 31 29 26 26 28 30 33 37 39 39 40 43 45 44 43 40 39 39 40 43 47 49 49 49 50 50 50 51 51 52 53 54 54 54 52 51 49 48 46 44 42 40 38 37
47 49 50 50 49 46 43 41 41 41 42 42 41 41 42 42 40 37 35 34 35 37 38 39 41 41 43 45 47 47 47 45 44 44 42 41 40 40 40 40 39 35 32 30 29 30 32 34 38 40 40 41 43 44 43 42 41 40 40 41 43 46 47 48 49 50 50 51 51 52 52 53 53 54 54 53 51 51 49 47 44 41 38 36 35
44 45 45 44 43 41 40 40 40 41 40 40 39 37 37 38 39 40 39 37 36 36 36 37 38 39 40 41 42 44 44 43 43 43 42 41 40 38 36 37 37 36 34 33 34 34 35 36 39 40 41 41 43 43 42 41 40 40 40 42 43 45 45 46 48 49 50 51 52 52 52 53 54 55 54 53 53 51 49 46 42 40 38 37 35
40 40 41 40 40 40 39 39 39 39 38 38 38 38 39 38 38 38 39 39 39 39 38 37 36 35 37 38 38 39 39 38 38 38 38 40 41 37 33 32 33 34 34 35 35 36 37 38 40 40 40 40 41 41 41 40 40 40 41 42 43 44 44 45 47 49 50 51 51 52 53 54 54 54 53 52 51 49 46 44 42 40 39 37 34
38 39 40 39 39 39 38 37 37 37 38 39 40 40 40 39 38 37 37 37 38 38 39 40 37 35 35 36 37 37 37 36 36 35 34 35 38 37 35 34 34 34 35 36 36 36 37 38 38 39 39 40 40 40 40 40 40 40 42 43 43 43 44 46 47 48 49 49 50 51 52 53 53 53 52 51 49 47 45 43 42 40 38 36 34
38 39 40 39 39 38 37 37 37 38 38 39 38 38 38 38 38 37 36 36 37 38 39 40 40 38 36 35 35 34 32 31 31 32 32 32 33 34 36 38 37 35 34 36 36 34 34 35 35 36 39 40 40 39 40 40 41 41 43 44 45 45 45 46 48 48 48 48 49 50 51 53 53 52 51 49 47 45 44 43 41 40 38 36 33
38 39 39 39 38 37 37 37 38 38 37 37 37 38 39 39 38 37 37 37 38 39 39 40 39 39 38 35 32 30 28 26 25 26 25 26 27 28 32 36 37 35 34 35 35 33 32 32 32 33 37 40 39 38 39 40 41 42 42 44 46 46 46 47 48 49 48 48 48 49 50 50 49 48 47 45 45 45 44 43 41 38 35 32 29
38 39 38 36 35 35 35 36 37 37 37 37 37 38 39 39 39 38 38 39 40 40 39 39 38 38 38 35 31 29 29 28 28 25 22 19 19 22 26 31 34 34 32 32 33 30 29 29 29 30 35 39 39 38 38 40 41 41 42 44 45 45 46 46 47 48 48 48 47 47 47 47 46 45 44 44 45 45 44 41 38 34 32 29 27
39 39 37 34 33 33 33 34 35 36 37 37 37 37 38 39 39 39 39 40 41 40 40 39 38 37 36 34 31 29 31 33 34 32 27 22 18 18 20 25 29 30 28 30 31 27 25 27 27 28 32 38 39 38 38 39 39 40 41 43 44 44 44 46 47 47 48 47 46 45 44 44 43 43 43 44 44 43 40 37 33 31 30 28 26
39 39 36 33 32 32 32 33 34 35 36 36 36 37 38 38 39 39 40 40 40 40 39 38 37 35 33 31 29 29 32 37 39 36 31 26 22 20 19 20 23 24 24 27 27 23 22 24 24 26 31 36 38 38 38 37 38 39 40 42 43 43 44 46 47 48 48 47 45 43 42 42 42 43 42 41 40 38 35 33 30 28 27 25 23
37 37 35 32 31 31 31 32 33 33 34 35 35 36 37 37 37 38 39 39 40 40 39 38 37 34 31 28 26 27 31 35 35 31 27 25 23 21 18 17 17 20 23 25 23 20 20 21 21 24 30 34 36 37 37 36 36 38 39 40 42 42 43 46 47 48 48 46 44 42 41 41 41 42 40 38 36 34 31 29 28 26 25 23 22
35 35 33 31 30 29 29 30 31 32 32 33 34 34 34 35 35 36 38 39 39 38 38 37 36 32 29 27 25 26 28 30 27 24 22 22 21 19 18 16 14 16 21 23 21 19 18 18 19 23 28 33 34 35 34 33 34 36 37 39 41 42 44 46 47 47 46 45 42 41 41 40 39 39 38 36 34 31 29 28 26 25 24 22 20
33 32 31 30 28 27 27 28 30 30 31 31 32 31 31 31 31 32 33 35 36 35 35 35 34 31 30 28 26 25 26 25 23 21 20 19 18 17 16 16 13 12 17 19 20 18 16 16 17 20 24 29 31 31 30 31 32 34 36 37 39 40 43 44 45 46 45 43 42 41 40 39 39 38 36 34 32 30 28 27 26 24 22 20 18
30 29 29 28 27 26 25 26 27 28 28 29 29 29 29 28 28 27 26 28 29 29 29 29 28 28 27 26 25 25 23 21 19 18 16 14 14 13 13 13 12 11 13 15 17 16 13 12 13 16 21 25 27 28 29 30 31 31 32 35 36 39 41 43 45 45 44 42 41 41 39 38 38 37 35 32 30 29 28 26 24 22 20 18 16
28 28 27 27 26 25 25 25 25 26 27 27 28 28 27 27 27 26 25 24 24 24 23 23 23 23 23 22 22 21 19 18 17 16 13 11 11 10 10 10 10 10 12 13 14 13 10 8 10 14 19 23 26 28 30 31 30 29 29 30 32 34 37 39 42 44 42 40 39 39 38 37 36 35 33 30 29 27 25 24 22 20 18 17 15
26 26 26 25 25 24 24 24 25 25 26 27 28 28 27 27 27 26 25 24 24 23 22 22 22 21 21 21 20 18 17 16 15 14 11 10 9 9 8 7 7 9 10 11 11 10 8 7 11 15 19 22 26 29 31 31 30 28 27 28 29 31 33 36 39 40 39 37 36 36 36 35 35 33 31 28 26 24 22 21 19 17 16 15 14
26 25 24 24 24 23 23 24 25 25 26 26 27 27 27 26 26 26 25 25 24 23 22 21 21 21 21 21 20 19 17 16 14 12 10 9 8 8 7 6 6 7 8 8 8 7 6 8 12 16 19 22 25 27 29 29 27 25 25 26 27 28 29 32 35 36 35 34 33 33 34 34 32 30 28 25 24 22 21 19 17 16 14 14 13
26 24 23 23 23 23 23 24 24 25 26 26 27 27 27 27 27 26 26 25 24 23 23 22 21 20 20 20 20 19 18 16 14 12 9 8 6 6 5 4 4 5 6 6 6 6 7 9 12 15 18 20 22 24 25 25 23 21 21 22 23 23 24 27 31 33 32 31 30 30 30 29 28 26 25 23 22 20 18 17 16 15 14 13 13
25 23 22 22 22 23 23 24 25 25 26 27 27 28 29 29 28 27 27 26 25 24 24 23 22 20 19 19 18 18 17 16 15 12 10 8 6 5 4 3 2 2 3 4 5 5 7 8 10 12 15 17 18 19 19 17 15 14 15 16 16 17 20 25 30 31 29 28 27 27 26 25 24 23 21 20 18 17 16 16 15 14 14 13 12
24 23 21 21 22 22 23 24 25 25 26 27 28 29 29 29 29 29 28 28 27 26 25 24 22 21 19 19 18 17 16 15 15 14 12 11 9 7 6 5 4 3 1 1 2 2 3 4 5 6 8 10 12 13 14 15 16 17 18 19 21 22 25 29 30 28 27 27 26 25 23 22 21 20 19 18 17 16 16 15 14 14 13 12 11
22 22 21 21 21 22 23 24 25 26 26 26 27 28 29 29 30 31 31 30 30 29 27 26 24 22 21 20 19 18 17 16 16 15 13 12 11 10 9 9 9 9 9 9 10 10 10 10 10 10 12 14 16 19 21 23 25 26 27 28 28 28 28 28 26 25 24 23 22 21 20 19 18 17 17 17 16 15 15 14 14 13 12 11 11
Wind_Direction
7 6 6 4 2 1 0 359 358 357 357 356 356 356 355 354 352 352 353 353 351 350 350 351 349 341 332 323 316 307 299 293 291 289 285 282 279 276 274 269 265 262 259 256 253 250 249 248 247 247 245 243 242 241 239 238 237 237 236 236 238 238 236 235 234 233 235 237 238 239 238 238 237 233 229 226 224 223 225 226 228 228 229 231 232
358 358 359 359 359 358 356 355 353 352 352 350 350 350 350 349 349 347 348 349 348 347 346 346 347 346 340 330 323 317 310 301 295 291 289 287 283 280 278 274 269 266 263 260 257 254 252 251 250 249 247 245 243 241 240 239 237 237 236 236 237 237 236 234 232 232 234 235 237 237 236 236 236 234 230 227 225 224 225 227 228 228 229 230 231
351 350 349 350 350 351 351 351 349 347 345 345 345 345 345 345 345 344 345 346 345 344 342 340 340 340 341 337 330 322 315 309 302 295 292 289 287 284 282 278 274 271 268 265 262 258 256 254 253 251 249 246 244 242 241 240 239 238 237 236 236 237 237 235 233 233 235 236 237 238 237 236 235 233 231 227 224 223 224 226 226 226 228 229 230
353 350 348 346 344 343 343 344 345 344 342 340 340 340 341 342 342 342 342 341 341 341 339 337 335 332 332 333 332 327 319 311 305 300 296 292 289 287 285 282 277 274 272 270 267 264 260 258 257 253 250 248 246 244 242 241 239 238 238 237 237 237 237 236 234 234 235 237 238 239 239 237 234 232 230 226 224 223 224 225 225 226 227 228 229
351 350 349 347 344 342 340 338 338 340 341 341 339 336 335 336 338 340 339 337 336 335 335 335 334 332 329 326 325 325 323 315 306 300 297 294 291 288 285 283 280 277 274 271 269 268 264 262 260 256 252 250 248 246 244 241 240 239 238 238 237 237 237 237 235 234 234 236 238 239 239 237 234 231 229 227 225 223 223 225 227 228 228 227 227
343 344 344 343 342 341 339 337 335 335 336 338 338 338 337 335 335 336 336 336 335 334 332 333 332 332 330 327 322 319 318 316 310 303 299 295 292 290 286 283 280 279 276 272 271 269 267 264 262 257 253 252 250 248 246 244 241 239 239 238 238 237 237 237 235 233 232 235 238 238 237 235 233 231 230 229 228 227 225 226 228 229 229 228 226
335 336 336 336 335 335 334 334 333 332 331 331 332 334 335 335 334 333 331 330 330 331 331 331 330 329 329 327 325 321 317 315 314 311 304 297 293 290 287 283 280 278 276 274 273 271 267 266 264 260 256 254 252 249 247 245 243 241 241 240 238 237 237 237 236 233 232 234 235 236 236 235 234 232 231 230 229 228 227 228 229 229 229 228 228
328 328 328 328 328 328 328 329 329 328 328 327 327 327 328 329 329 329 329 327 325 325 325 325 325 325 326 325 325 324 321 318 318 316 313 307 298 290 286 283 281 279 276 274 273 271 268 266 265 262 259 257 254 251 248 245 243 242 242 240 238 237 237 237 236 234 233 233 234 235 235 234 233 232 230 228 227 227 227 228 229 229 230 230 230
322 321 320 320 320 320 321 323 323 323 323 323 323 322 322 322 322 322 323 323 323 322 320 320 320 320 320 320 321 322 322 321 321 319 316 315 312 304 293 284 280 279 277 274 271 269 266 265 265 263 260 259 257 254 251 247 245 244 243 241 238 237 236 236 236 235 233 231 232 232 232 232 231 232 230 229 229 229 229 228 228 229 230 231 230
319 317 316 316 315 316 316 316 317 316 317 318 318 319 318 318 317 317 316 316 316 317 317 316 316 316 315 315 316 316 317 318 320 319 318 317 316 313 306 295 284 278 276 275 273 269 266 264 263 263 262 261 259 256 253 250 247 246 245 243 240 239 237 235 235 234 233 231 231 231 231 232 232 234 235 235 233 232 231 230 229 229 229 229 230
319 317 317 316 316 315 314 314 313 312 312 312 312 313 313 313 313 313 313 312 311 311 312 312 312 312 311 311 310 310 311 313 315 318 318 318 316 314 310 305 295 284 276 273 272 271 269 267 264 263 262 260 258 256 254 252 249 246 244 243 242 242 240 238 236 234 232 232 233 233 234 235 235 236 237 236 234 233 233 232 231 229 229 230 231
322 319 318 317 317 316 314 313 311 309 308 308 307 307 308 308 308 309 309 309 309 308 308 308 309 309 308 307 306 305 305 307 309 311 314 316 316 314 310 307 302 294 283 275 271 270 270 269 268 265 262 258 257 257 255 252 250 248 245 242 241 242 242 242 241 239 236 234 233 234 235 236 236 237 237 236 235 235 235 234 231 230 231 232 233
322 320 319 318 317 315 313 311 309 308 307 305 304 304 304 303 303 304 304 304 305 305 305 305 306 306 306 305 304 303 302 301 303 305 307 310 312 312 309 305 302 298 292 283 275 270 268 269 269 267 264 261 259 258 256 254 252 251 248 244 242 241 241 241 242 243 243 241 237 237 237 237 237 240 241 240 238 236 235 234 232 231 232 232 232
321 320 319 318 316 315 313 311 308 307 306 304 303 302 301 300 300 300 300 299 299 299 300 301 301 302 303 302 303 302 301 300 300 300 301 303 305 307 307 305 301 298 295 291 283 275 269 267 267 267 267 265 261 257 256 257 256 253 249 245 243 242 240 239 239 239 240 242 241 241 241 240 240 243 244 242 239 239 240 240 238 234 232 230 228
319 318 317 316 314 313 311 310 309 307 305 304 302 300 299 298 298 297 296 295 295 294 294 295 296 297 298 298 299 299 298 299 299 298 297 298 300 302 303 303 301 298 295 292 288 283 275 269 265 264 265 265 264 259 256 258 259 257 253 248 246 244 241 239 238 236 236 238 239 240 241 241 241 242 242 240 239 240 242 242 239 233 228 225 224
317 317 315 314 313 312 311 311 310 308 307 305 303 301 300 298 297 296 295 294 292 291 291 290 290 291 292 293 295 295 295 296 297 297 297 296 297 298 299 299 299 297 295 291 289 286 282 275 268 264 263 262 263 262 260 259 260 258 255 252 249 246 244 242 240 238 237 237 238 238 239 240 240 241 241 239 237 237 236 233 231 227 224 222 223
316 315 314 314 313 312 311 310 309 307 306 305 303 302 301 299 297 296 295 293 292 291 289 288 287 287 287 288 289 291 292 292 293 294 294 294 295 295 295 296 295 294 293 291 288 285 282 279 273 267 265 262 261 261 261 260 259 257 254 252 249 245 245 245 242 239 238 237 237 237 237 238 239 239 239 238 236 235 233 230 227 225 222 221 223
315 314 313 312 311 309 308 306 305 304 303 301 300 300 300 299 298 297 295 293 291 290 289 287 286 284 284 284 284 286 287 288 289 290 290 290 291 291 291 292 291 291 290 289 287 284 281 280 276 269 266 265 262 261 261 261 259 256 253 250 245 244 245 244 239 236 235 235 235 235 235 236 236 236 236 236 235 235 234 233 232 228 223 220 222
313 312 311 309 308 306 306 304 303 302 300 299 298 297 297 297 297 297 296 294 293 292 290 288 286 284 282 281 281 282 283 284 285 286 286 287 286 287 287 287 287 287 287 286 286 283 280 279 276 271 268 265 261 261 262 261 257 254 251 246 242 243 245 243 238 235 233 232 232 232 231 232 232 232 232 232 233 234 234 233 233 230 225 222 223
310 309 308 307 306 305 305 303 302 300 299 298 298 297 297 297 297 296 295 293 293 293 291 288 287 285 283 281 279 279 279 279 281 282 283 283 283 283 282 281 282 284 284 282 281 280 279 276 274 272 270 266 261 259 261 260 256 253 250 244 242 245 245 242 240 238 235 234 233 231 230 230 230 230 229 229 229 230 230 230 230 228 226 224 225
308 308 307 306 305 304 303 302 301 301 300 300 300 299 299 298 296 295 293 292 291 290 288 286 285 284 283 282 280 278 276 275 276 277 279 279 280 280 278 276 278 280 281 280 277 275 275 273 272 272 271 268 263 260 259 258 256 254 249 247 248 249 245 242 241 239 235 234 233 231 229 229 229 228 227 226 227 228 228 228 227 225 223 225 227
308 307 306 304 303 302 302 302 302 302 302 302 301 300 299 298 296 294 292 290 289 286 284 284 283 283 283 282 281 278 276 274 273 273 274 274 276 276 275 274 275 276 277 276 274 273 273 272 271 272 270 268 266 262 260 259 257 254 252 252 252 250 245 242 240 236 233 231 229 227 225 224 224 224 223 223 224 225 225 225 224 223 222 225 229
306 305 303 303 302 303 303 303 303 303 303 303 302 301 301 300 298 296 293 291 290 288 287 286 285 285 285 285 283 281 278 276 274 272 270 271 272 273 273 272 273 273 272 272 272 273 273 272 271 270 268 267 266 262 260 259 256 254 254 253 250 247 242 238 235 232 230 227 224 222 221 219 219 218 218 219 220 222 223 223 223 222 222 224 226
305 304 303 303 304 304 304 304 304 304 304 305 305 304 304 303 302 301 298 293 289 288 288 287 283 281 282 285 287 286 283 280 278 275 272 270 271 273 273 272 270 269 268 269 271 271 272 273 273 270 265 264 264 261 260 259 256 254 252 248 245 243 237 231 229 227 224 222 221 220 219 217 216 215 215 216 219 221 222 222 221 220 221 223 224
304 304 304 305 305 305 305 305 306 306 307 307 307 307 307 306 304 302 297 289 283 282 281 279 277 276 276 279 284 287 285 283 281 278 274 272 271 270 270 270 270 269 266 267 268 269 270 272 273 268 263 262 261 259 258 257 257 255 250 241 236 236 232 226 223 221 220 221 221 219 217 215 214 215 216 217 218 220 220 218 216 217 219 221 223
305 305 305 306 306 307 307 307 309 309 309 309 309 308 307 305 301 296 290 285 282 280 279 277 276 276 277 277 279 282 283 282 280 277 274 272 271 268 264 265 270 271 267 265 266 267 268 268 266 262 259 258 256 254 253 254 253 251 246 235 229 229 228 224 220 218 219 220 218 216 215 213 213 215 217 217 217 218 218 216 214 216 219 220 221
306 307 307 308 308 309 310 311 312 312 310 309 309 307 305 301 295 288 285 285 283 281 280 279 277 277 279 280 281 281 280 280 278 275 274 273 273 270 265 265 270 272 268 264 263 263 264 263 258 255 255 255 254 253 253 253 250 244 237 230 225 224 225 224 221 218 218 218 216 214 214 213 213 216 216 215 216 216 216 216 215 216 218 219 220
309 309 310 311 311 312 313 313 312 310 307 305 304 302 299 295 289 284 284 284 282 281 280 278 277 278 280 281 282 282 280 277 275 274 273 272 271 272 270 268 271 273 269 265 262 262 263 259 252 248 248 249 250 250 249 248 246 242 236 229 225 223 222 221 220 219 218 217 214 212 211 209 211 213 213 212 212 213 214 215 216 217 218 218 218
312 312 312 313 314 314 313 310 307 305 303 301 299 298 297 293 288 286 286 284 281 280 280 278 277 278 279 279 280 280 279 278 276 276 275 272 270 271 270 270 272 275 274 270 266 264 261 252 243 241 241 240 241 241 241 240 239 237 235 230 225 222 219 216 216 216 215 213 210 208 206 204 205 207 208 208 209 211 212 213 214 215 216 216 217
314 314 315 315 313 311 308 305 303 302 301 301 300 299 298 294 289 285 286 285 282 280 280 279 279 279 279 278 277 276 277 278 278 278 277 274 272 270 269 268 269 272 273 271 266 261 254 246 240 237 235 234 234 235 235 234 232 231 231 228 225 223 219 214 213 214 212 209 208 206 204 201 201 203 204 204 206 208 210 211 213 214 214 214 213
317 316 314 311 308 306 304 303 303 302 301 301 301 300 299 298 294 288 286 287 286 284 283 281 280 279 279 279 278 278 277 278 278 277 275 275 273 270 269 268 267 265 266 265 260 254 247 243 240 236 231 230 232 233 233 231 229 227 226 224 223 222 218 213 211 211 209 207 206 205 202 201 202 203 203 204 207 208 209 210 211 212 213 212 211
316 312 309 306 306 307 306 305 304 303 302 301 300 298 298 298 297 296 294 291 289 289 288 286 284 282 280 280 280 280 280 279 279 278 276 275 274 272 269 266 263 262 261 259 255 251 246 243 240 236 232 231 232 231 229 228 226 224 222 220 220 220 217 211 209 208 207 205 204 203 202 202 204 205 206 207 209 210 208 207 208 208 209 208 207
310 308 308 310 311 311 310 308 307 305 303 301 299 297 297 296 295 297 299 298 295 294 291 289 288 286 284 283 282 282 282 282 281 279 276 273 271 273 271 266 260 258 256 253 249 247 245 244 242 238 235 235 234 230 226 225 224 221 219 218 218 217 214 209 207 207 206 206 205 204 203 204 205 205 206 207 209 209 207 206 205 204 203 203 203
313 314 318 319 317 314 312 310 308 305 303 301 299 299 299 298 295 295 297 299 300 300 298 296 293 290 288 287 286 285 286 286 284 282 277 271 265 267 273 273 264 255 250 247 245 244 244 245 245 240 235 235 234 228 224 223 221 218 216 215 215 214 210 207 206 207 206 206 206 206 206 206 206 206 206 207 209 208 207 205 204 203 201 201 202
324 325 326 324 321 316 313 311 308 304 303 303 302 300 300 299 297 295 295 296 296 298 299 300 299 295 293 291 290 289 288 288 287 285 281 274 266 263 268 274 270 258 249 244 242 241 242 245 245 240 234 233 231 226 222 220 219 216 213 212 212 211 209 206 206 207 208 208 209 209 210 210 210 211 211 209 207 206 205 204 203 202 201 202 203
330 329 328 327 323 318 314 311 309 306 304 303 302 300 299 298 297 295 294 293 293 293 296 300 303 302 298 294 293 294 295 294 292 288 284 279 271 262 258 262 265 261 251 243 239 238 241 245 246 240 233 231 229 224 221 219 218 215 213 212 212 211 209 206 206 208 209 211 211 211 211 211 210 210 210 208 205 204 204 202 201 200 200 201 201
333 331 329 327 323 318 314 312 310 308 305 303 302 302 302 301 300 298 296 296 297 296 297 301 304 305 305 306 307 307 309 311 309 301 292 284 274 260 251 253 259 261 254 242 235 235 239 245 247 241 233 229 226 223 220 219 217 214 213 213 213 213 212 211 210 210 211 211 211 210 210 209 208 207 206 204 202 201 200 199 197 195 195 197 198
335 332 329 327 323 319 315 314 313 311 310 308 307 307 307 305 304 302 301 302 303 302 301 303 305 305 309 316 321 319 317 321 324 320 312 301 283 266 255 253 257 261 256 242 232 232 237 244 248 244 234 227 224 221 219 218 217 214 213 212 213 215 214 212 210 209 209 210 209 208 207 207 206 205 203 202 201 198 196 195 194 192 192 194 196
336 332 331 330 328 324 321 319 318 317 316 315 314 313 312 309 306 305 305 306 306 305 304 306 308 309 313 318 323 324 321 320 321 318 313 309 299 284 269 259 259 262 256 239 228 230 239 245 248 245 234 225 221 219 218 218 216 214 213 213 213 212 209 207 205 206 207 208 209 208 207 206 204 202 201 201 200 196 194 192 191 191 193 194 196
335 332 332 333 332 330 328 325 323 322 321 320 318 317 316 314 311 309 309 309 309 309 308 308 309 315 319 320 323 322 316 312 313 312 309 307 305 296 281 270 266 262 248 230 223 231 243 246 245 240 231 223 219 217 216 216 216 215 214 215 214 211 207 204 205 206 207 208 209 208 206 204 202 199 197 197 196 194 191 190 189 191 193 194 195
334 331 333 335 334 333 331 330 329 328 327 325 323 321 319 319 317 314 312 311 310 311 312 311 312 318 324 327 327 321 310 307 311 312 308 309 310 302 292 287 275 255 235 223 223 234 244 243 238 232 226 220 214 211 211 213 216 217 216 215 214 210 205 203 204 206 207 207 207 205 203 201 199 195 193 191 191 190 189 189 189 189 191 193 195
334 332 333 335 335 334 335 336 335 334 331 329 327 324 322 321 320 317 315 315 315 314 315 317 319 322 327 331 333 326 315 313 318 318 313 315 315 307 302 303 284 244 224 222 228 237 244 242 233 227 223 217 212 209 209 213 219 221 218 215 212 208 203 202 203 204 205 204 202 199 197 195 193 192 190 188 187 187 186 187 188 189 190 192 196
335 334 334 335 335 336 338 340 339 337 335 332 331 330 328 326 324 320 317 318 319 319 319 320 323 326 328 330 329 322 315 316 320 318 313 315 317 311 310 311 294 246 224 226 234 240 248 247 237 230 227 223 220 217 216 220 223 223 218 215 212 207 203 201 200 200 200 199 196 193 192 190 188 188 188 187 186 185 185 186 187 188 189 193 197
336 336 336 336 336 339 342 344 343 342 341 340 339 339 337 335 333 331 327 323 322 322 323 322 322 322 321 319 317 315 315 318 322 321 318 317 318 319 321 319 302 266 242 240 242 244 251 253 242 233 229 224 222 220 219 220 222 223 220 216 212 207 204 203 201 200 199 197 193 190 188 187 186 186 187 186 185 186 186 186 187 188 190 194 199
339 339 339 339 340 343 346 348 349 349 349 349 349 349 348 347 345 344 342 337 334 335 335 333 330 326 323 321 321 322 324 326 327 328 329 328 323 318 317 316 301 272 252 248 245 245 252 256 242 230 223 218 216 215 214 215 218 221 221 219 217 213 209 208 206 204 202 200 195 190 186 184 184 184 184 184 185 186 186 186 187 190 193 198 202
345 344 343 342 344 348 351 353 356 357 356 356 356 356 356 356 355 353 352 349 346 347 347 347 347 345 342 339 338 337 335 334 333 334 336 335 326 313 300 294 281 257 241 236 237 240 246 242 229 220 216 213 211 209 209 211 214 215 215 215 216 215 212 210 208 206 203 200 196 190 185 183 183 183 183 183 183 184 185 187 190 193 196 202 206
351 349 347 347 349 354 358 0 3 3 2 3 3 2 2 2 2 1 360 358 356 356 356 356 357 358 357 354 351 347 343 341 340 340 341 338 328 312 293 276 259 241 228 221 223 230 231 224 219 216 214 212 210 207 207 208 209 210 210 210 211 212 211 209 206 202 196 193 192 189 186 183 181 180 180 179 181 184 186 188 193 196 200 207 212
355 353 352 353 356 0 4 7 10 10 10 11 11 10 10 9 9 8 7 6 5 4 4 4 5 6 7 6 4 360 356 351 346 345 347 346 336 322 308 291 266 242 224 213 209 211 213 214 214 212 211 210 209 207 207 207 207 207 206 206 209 213 212 204 195 188 184 183 184 183 181 179 177 176 177 179 182 186 188 191 196 200 203 210 217
359 358 358 0 4 8 10 13 15 16 16 18 18 18 18 17 16 16 16 15 14 13 11 11 11 12 14 16 16 13 11 7 1 359 1 1 1 0 350 333 306 255 228 211 202 203 205 208 209 208 207 207 207 205 204 201 196 193 192 192 194 198 192 182 175 172 172 172 172 172 173 173 172 174 178 181 185 188 191 194 199 203 207 214 220
3 4 4 7 12 15 16 18 19 19 21 23 24 24 24 23 24 25 24 23 23 22 20 19 19 19 21 24 25 26 28 27 24 23 22 20 24 30 28 23 25 28 36 88 106 116 138 159 171 181 188 188 184 178 172 163 155 153 153 152 153 157 160 161 162 163 165 165 165 166 168 170 172 176 180 184 188 192 195 198 202 207 211 218 226
6 7 9 12 15 17 19 21 20 20 21 24 26 27 28 29 30 31 31 31 31 31 29 28 28 28 29 32 36 39 42 44 43 43 43 42 44 46 50 56 65 72 80 88 94 95 98 107 117 126 133 137 138 137 137 137 137 137 137 137 141 146 151 154 157 159 160 161 163 165 167 171 175 180 184 187 190 193 197 200 205 211 216 224 233